Regional Weather Roundup
Issued by NWS

Home | Current Version | Previous Version | Text Only | Print | Product List | Glossary On
Versions: 1 2 3 4 5 6 7 8 9 10 11 12 13 14 15 16 17 18 19 20 21 22 23 24 25 26 27 28 29 30 31 32 33 34 35 36 37 38 39 40 41 42 43 44 45 46 47 48 49 50
000
ASUS43 KLMK 290902
RWRKY
KENTUCKY REGIONAL WEATHER ROUNDUP
NATIONAL WEATHER SERVICE LOUISVILLE KY
500 AM EDT FRI AUG 29 2014

NOTE "FAIR" INDICATES FEW OR NO CLOUDS BELOW 12,000 FEET
WITH NO SIGNIFICANT WEATHER AND/OR OBSTRUCTIONS TO VISIBILITY.

KYZ001>023-026-027-061>063-070>075-291000-
WESTERN AND SOUTH CENTRAL KENTUCKY

CITY           SKY/WX    TMP DP  RH WIND       PRES   REMARKS
PADUCAH        CLEAR     73  70  90 CALM      29.96S FOG
HENDERSON      PTCLDY    70  66  88 CALM      29.97F
OWENSBORO      PTCLDY    74  -3   5 CALM      29.99S
HOPKINSVILLE   CLEAR     72  72 100 E2        29.98F
BOWLING GREEN  PTCLDY    71  70  96 NE3       30.00S FOG
GLASGOW        PTCLDY    71  71 100 CALM      30.01S FOG
$$

KYZ024-025-028>034-038-045-046-053-291000-
NORTH CENTRAL KENTUCKY

CITY           SKY/WX    TMP DP  RH WIND       PRES   REMARKS
LOUISVILLE/SDF PTCLDY    75  68  78 E5        30.02S
LOUISVILLE/LOU PTCLDY    74  67  78 E3        30.03S
FORT KNOX      MOCLDY    73  70  91 E5        30.01S
$$

KYZ035>037-039>044-047>052-055>060-089>105-291000-
NORTHEAST KENTUCKY

CITY           SKY/WX    TMP DP  RH WIND       PRES   REMARKS
LEXINGTON      PTCLDY    73  63  70 E8        30.05F
COVINGTON      MOCLDY    68  61  78 E6        30.07S
FRANKFORT      CLEAR     69  65  86 E5        30.04S
$$

KYZ054-064>069-076>088-106>120-291000-
SOUTHEAST KENTUCKY

CITY           SKY/WX    TMP DP  RH WIND       PRES   REMARKS
JACKSON        CLEAR     68  61  78 CALM      30.08S
LONDON         CLEAR     70  66  87 CALM      30.06S
SOMERSET       CLEAR     70  68  94 CALM      30.06R
MIDDLESBORO    FOG       68  68 100 CALM      30.08R VSB 1
MONTICELLO     SUNNY     71  70  97 CALM      30.05F FOG
$$



USA.gov is the U.S. government's official web portal to all federal, state and local government web resources and services.